Cheyenne, WY

5:49 PM MDT on October 22, 2019 (GMT -0600)
Cheyenne

Weather History for KCYS - September, 2019

Change the Weather History Date:

Friday, September 20, 2019

  Actual Average Record
Temperature  
Mean Temperature 66 °F -  
Max Temperature 82 °F 67 °F 87 °F (1956)
Min Temperature 51 °F 41 °F 21 °F (1983)
Cooling Degree Days 2    
Growing Degree Days 16 (Base 50)    
Moisture  
Dew Point 41 °F    
Average Humidity 44    
Maximum Humidity 89    
Minimum Humidity 18    
Precipitation  
Precipitation 0.00 in - - ()
Sea Level Pressure  
Sea Level Pressure 29.66 in    
Wind  
Wind Speed 10 mph (SSE)    
Max Wind Speed 18 mph    
Max Gust Speed 26 mph    
Visibility 10 miles    
Events Rain , Thunderstorm    
Averages and records for this station are not official NWS values.
T = Trace of Precipitation, MM = Missing Value Source: NWS Daily Summary

Daily Weather History Graph

Daily Weather History Graph

Search for Another Location

Airport or City:

Astronomy

Sep. 20, 2019 Rise Set
Actual Time 6:44 AM MDT 7:00 PM MDT
Civil Twilight 6:16 AM MDT 7:27 PM MDT
Nautical Twilight 5:44 AM MDT 7:59 PM MDT
Astronomical Twilight 5:11 AM MDT 8:32 PM MDT
Moon 10:48 PM MDT (9/20) 12:55 PM MDT (9/20)
Length of Visible Light 13h 10m
Length of Day
12h 15m
Waning Gibbous, 64% of the Moon is Illuminated
Sep 20
Waning Gibbous
Sep 21
Last Quarter
Sep 28
New
Oct 5
First Quarter
Oct 13
Full

Hourly Weather History & Observations

Time (MDT) Temp. Dew Point Humidity Pressure Visibility Wind Dir Wind Speed Gust Speed Precip Events Conditions
12:53 AM 62.1 °F 50.0 °F 65% 29.67 in 10.0 mi South 17.3 mph 26.5 mph N/A   Partly Cloudy
1:53 AM 60.1 °F 50.0 °F 69% 29.67 in 10.0 mi SSE 12.7 mph 23.0 mph N/A   Clear
2:53 AM 57.0 °F 50.0 °F 77% 29.65 in 10.0 mi SSE 9.2 mph - N/A   Clear
3:53 AM 55.0 °F 50.0 °F 83% 29.65 in 10.0 mi South 5.8 mph - N/A   Clear
4:53 AM 54.0 °F 50.0 °F 86% 29.65 in 10.0 mi SSW 3.5 mph - N/A   Clear
5:53 AM 51.1 °F 48.0 °F 89% 29.67 in 10.0 mi SW 3.5 mph - N/A   Clear
6:53 AM 52.0 °F 48.0 °F 86% 29.67 in 10.0 mi SW 4.6 mph - N/A   Clear
7:53 AM 53.1 °F 48.9 °F 86% 29.68 in 10.0 mi Calm Calm - N/A   Clear
8:53 AM 59.0 °F 52.0 °F 78% 29.68 in 10.0 mi SSE 6.9 mph - N/A   Clear
9:53 AM 64.9 °F 53.1 °F 65% 29.67 in 10.0 mi SSE 5.8 mph - N/A   Clear
10:53 AM 73.0 °F 48.0 °F 41% 29.61 in 10.0 mi ESE 6.9 mph - N/A   Clear
11:53 AM 79.0 °F 43.0 °F 28% 29.59 in 10.0 mi SE 10.4 mph - N/A   Clear
12:53 PM 80.1 °F 42.1 °F 26% 29.58 in 10.0 mi SSE 8.1 mph - N/A   Clear
1:53 PM 78.1 °F 39.9 °F 25% 29.57 in 10.0 mi East 8.1 mph - N/A   Partly Cloudy
2:42 PM 77.0 °F 36.0 °F 23% 29.82 in 10.0 mi East 11.5 mph - N/A   Partly Cloudy
2:53 PM 78.1 °F 36.0 °F 22% 29.57 in 10.0 mi Variable 4.6 mph - N/A   Clear
3:53 PM 81.0 °F 36.0 °F 20% 29.54 in 10.0 mi SE 11.5 mph 18.4 mph N/A   Clear
4:18 PM 79.0 °F 34.0 °F 20% 29.80 in 10.0 mi SE 11.5 mph 17.3 mph N/A Thunderstorm Clear
4:33 PM 75.9 °F 37.0 °F 24% 29.83 in 10.0 mi North - - N/A   Partly Cloudy
4:53 PM 70.0 °F 41.0 °F 35% 29.61 in 10.0 mi North 16.1 mph 25.3 mph N/A   Scattered Clouds
5:53 PM 69.1 °F 36.0 °F 30% 29.61 in 10.0 mi NNE 6.9 mph - N/A   Partly Cloudy
6:53 PM 68.0 °F 37.0 °F 32% 29.62 in 10.0 mi Calm Calm - N/A   Scattered Clouds
7:53 PM 66.9 °F 36.0 °F 32% 29.65 in 10.0 mi Variable 4.6 mph - N/A   Scattered Clouds
8:53 PM 66.0 °F 35.1 °F 32% 29.64 in 10.0 mi NNW 18.4 mph 26.5 mph N/A   Scattered Clouds
9:53 PM 61.0 °F 33.1 °F 35% 29.70 in 10.0 mi NW 16.1 mph 25.3 mph 0.00 in Rain Light Rain
10:53 PM 61.0 °F 24.1 °F 24% 29.70 in 10.0 mi NW 16.1 mph 25.3 mph 0.00 in   Scattered Clouds
11:53 PM 57.0 °F 28.9 °F 34% 29.70 in 10.0 mi North 10.4 mph - N/A   Partly Cloudy